sat.trackr.live / text

‹ back to catalog

IRIDIUM 105

NORAD 41921 · 2017-003E

PAYLOAD ACTIVE UNKNOWN

§ Identity

Operator
Country
US
Launch date
2017-01-14
Launch site
AFWTR
Launch vehicle
Mass (kg)
RCS (m²)
2.25

Purposes: comms

External: N2YO · Heavens-Above · Gunter

§ Orbital elements

Epoch: 2026-05-25T01:29:36.970080Z

Period
100.40 min
Inclination
86.3971°
Eccentricity
0.0002411
Mean motion
14.34217990 rev/d
Perigee alt
775.9 km
Apogee alt
779.4 km
Semi-major
7,155.8 km
B*
7.3835e-5
RAAN
66.5365°
Arg perigee
90.0307°
Mean anomaly
270.1165°
Rev number
49,182

§ Raw data

IRIDIUM 1051 41921U 17003E   26145.06223345  .00000227  00000+0  73835-4 0  99912 41921  86.3971  66.5365 0002411  90.0307 270.1165 14.34217990491827

JSON: /api/v1/satellites/41921 · /tle

For live sub-satellite position, see the globe view (requires WebGL).

§ Visibility from observer

Set your observer location to see the next 7 days of passes ≥ 10°. The values pass through the URL so the page stays shareable.

No JS? Fill the form by hand. The geolocation button needs JavaScript.